Ana Sayfa
METAR-TAF:

METAR-TAF

Havaalanları :

Sierra Blanca Regional Airport

Ruidoso, New Mexico, Amerika Birleşik Devletleri

Enlem: 33-28N, Boylam: 105-32W, yükseklik: 2076 m

Güncel hava durumu gözlemi

Rapor saat 08:55 UTC de 21 dakika önce yapıldı.
Rüzgar kuzey/kuzeybatıdan 13 kt ve 18 kt'a kadar ani rüzgarlar
Sıcaklık 12°C
Nem 50%
Basınç 1017 hPa
Görüş mesafesi: 16.1 km
11000 ft yükseklikte az bulutlu

METAR: KSRR 250855Z AUTO 34013G18KT 10SM FEW110 12/02 A3003 RMK AO2

Saat: 03:16 (09:16 UTC)


TAF: eksik

4.000'den fazla havaalanı için hava durumu gözlemleri ve tahminleri (METAR ve TAF raporları).

Kullanılabilir istasyonlar harita üzerinde sarı ve kırmızı noktalarla gösterilir.

İstasyonun adını görmek için fareyi noktanın üzerinde gezdirin.

Sonrasında hava gözlem ve tahminlerini görmek için tıklayın.

Haritayı değiştirmek için: yaklaştırmak için siyah artı işaretli yeşil düğmeye ve uzaklaştırmak için de eksi işaretli düğmeye hızla tıklayın; bitişik haritalar için yeşil okları kullanın.


METAR-TAF: